[[{"header":{"parameterUnit":"m.s-1","parameterCategory":1,"la1":30.2991,"la2":30.254,"lo1":-89.0895,"lo2":-89.0444,"dy":0.0017,"dx":0.0017,"nx":28,"ny":28,"refTime":"2023-10-17T09:00:00:Z","depth":0,"parameterNumber":2,"parameterNumberName":"U-component_of_WINDS"},"data":[0,0,0,0,0,0,0,0,0,0,0,0,0,0,0,0,0,0,0,0,0,0,0,0,0,0,0,0,0,0,0,0,0,0,0,0,0,0,0,0,0,0,0,0,0,0,0,0,0,0,0,0,0,0,0,0,0,0,-1.0286,-1.0286,0,-1.0302,-1.0303,-1.0303,-1.0269,-1.0268,-1.0267,-1.0266,-1.0284,-1.0285,-1.0286,0,0,0,0,0,0,0,0,0,0,0,0,0,-1.0225,-1.0226,-1.0286,-1.0286,-1.0286,-1.0302,-1.0303,-1.0303,-1.027,-1.0268,-1.0267,-1.0266,-1.0283,-1.0285,-1.0287,0,0,0,0,0,0,0,0,0,0,0,0,0,-1.0248,-1.0227,-1.0286,-1.0271,-1.027,-1.0302,-1.0303,-1.0303,-1.027,-1.0268,-1.0267,-1.0265,-1.0282,-1.0285,-1.0287,-1.0334,0,0,-1.0294,-1.0295,0,0,0,0,0,0,0,0,-1.0246,-1.025,-1.0273,-1.0273,-1.0271,-1.0282,-1.0288,-1.0313,-1.027,-1.027,-1.0266,-1.0264,-1.0284,-1.0286,-1.0293,-1.0334,-1.0335,-1.0294,-1.0295,-1.0296,-1.0297,0,0,0,0,0,0,0,-1.0245,-1.0249,-1.0292,-1.0274,-1.0273,-1.0264,-1.0266,-1.0292,-1.0286,-1.027,-1.0268,-1.027,-1.0284,-1.0291,-1.0293,-1.0335,-1.0294,-1.0296,-1.0297,-1.0298,-1.0417,-1.0418,0,0,0,0,0,0,-1.0245,-1.0248,-1.0292,-1.0293,-1.0255,-1.0267,-1.0268,-1.028,-1.0286,-1.0285,-1.0271,-1.0268,-1.0288,-1.0291,-1.0294,-1.035,-1.0296,-1.0298,-1.0299,-1.0415,-1.0417,-1.0419,0,0,0,0,0,0,-1.0244,-1.0249,-1.0291,-1.027,-1.0274,-1.027,-1.0283,-1.0282,-1.0289,-1.0287,-1.0286,-1.028,-1.0287,-1.0291,-1.0324,-1.035,-1.0299,-1.0301,-1.0413,-1.0416,-1.0418,-1.0462,0,0,0,0,0,0,-1.0242,-1.0249,-1.0267,-1.027,-1.0276,-1.0321,-1.0285,-1.0283,-1.0293,-1.0289,-1.0295,-1.0294,-1.0286,-1.0321,-1.0326,-1.0352,-1.0303,-1.041,-1.0414,-1.0417,-1.0459,-1.0466,-1.0473,0,0,0,0,0,-1.024,-1.0278,-1.0268,-1.0273,-1.0298,-1.0323,-1.0326,-1.0315,-1.0295,-1.0313,-1.0312,-1.0294,-1.0346,-1.0325,-1.033,-1.0358,-1.0409,-1.0413,-1.0417,-1.0455,-1.0465,-1.0473,0,0,0,0,0,0,-1.0278,-1.0279,-1.0267,-1.0307,-1.0315,-1.0317,-1.034,-1.0325,-1.0339,-1.0335,-1.0322,-1.0323,-1.036,-1.0361,-1.0338,-1.0403,-1.0374,-1.0379,-1.0401,-1.041,-1.0417,-1.0417,-1.0305,0,0,0,0,0,-1.0291,-1.0311,-1.0311,-1.0346,-1.0351,-1.0345,-1.0355,-1.0346,-1.0354,-1.0357,-1.0358,-1.0367,-1.0385,-1.0397,-1.0414,-1.0458,-1.0459,-1.0479,-1.0486,-1.0492,-1.0498,-1.0523,-1.0532,-1.0432,-1.0432,-1.0432,0,0,-1.0318,-1.0321,-1.0335,-1.0354,-1.0359,-1.0381,-1.0348,-1.0372,-1.0388,-1.0361,-1.0393,-1.0394,-1.0402,-1.0442,-1.0459,-1.0445,-1.0525,-1.0498,-1.0502,-1.0505,-1.0528,-1.0537,-1.0546,-1.0435,-1.0435,-1.0434,0,0,-1.038,-1.0383,-1.0414,-1.042,-1.0428,-1.0423,-1.0431,-1.0435,-1.0435,-1.0466,-1.0447,-1.0465,-1.0497,-1.0504,-1.0512,-1.0575,-1.056,-1.0581,-1.0619,-1.0643,-1.0651,-1.0658,-1.0683,-1.0692,-1.0586,-1.0586,-1.0586,0,-1.0413,-1.0445,-1.0432,-1.0458,-1.0467,-1.0443,-1.0475,-1.0481,-1.0494,-1.0501,-1.0484,-1.0524,-1.0527,-1.0569,-1.0584,-1.0591,-1.06,-1.0581,-1.0651,-1.0658,-1.0664,-1.0688,-1.0697,-1.0589,-1.0588,-1.0588,-1.0588,0,-1.0486,-1.0508,-1.0532,-1.0546,-1.0558,-1.0586,-1.0578,-1.0591,-1.0581,-1.0578,-1.0612,-1.0615,-1.0633,-1.0641,-1.0631,-1.0682,-1.0672,-1.0653,-1.0624,-1.0677,-1.0698,-1.0707,-1.0592,-1.0592,-1.0591,-1.059,0,0,-1.0573,-1.0579,-1.0588,-1.0594,-1.0601,-1.0619,-1.0646,-1.0663,-1.0676,-1.0685,-1.0709,-1.0736,-1.0718,-1.0727,-1.0718,-1.0739,-1.0791,-1.0717,-1.0717,-1.0733,-1.0848,-1.0864,-1.0875,-1.078,-1.0782,-1.0783,-1.0848,0,-1.0635,-1.0683,-1.0672,-1.0719,-1.0741,-1.0718,-1.0742,-1.0749,-1.0747,-1.0764,-1.0762,-1.0782,-1.0757,-1.0762,-1.0782,-1.0781,-1.0814,-1.0775,-1.0803,-1.0804,-1.0804,-1.0886,-1.0903,-1.0964,-1.0857,-1.0858,-1.0859,0,-1.0715,-1.0728,-1.0778,-1.0782,-1.079,-1.0812,-1.0828,-1.0844,-1.0852,-1.0849,-1.0859,-1.0845,-1.0873,-1.0841,-1.088,-1.0853,-1.0864,-1.0865,-1.0867,-1.0871,-1.0837,-1.0894,-1.0984,-1.0994,-1.0872,-1.0871,-1.087,0,-1.0776,-1.0806,-1.084,-1.0845,-1.0851,-1.0867,-1.087,-1.0876,-1.0887,-1.09,-1.0907,-1.0923,-1.0932,-1.0944,-1.0936,-1.0913,-1.0976,-1.0944,-1.0976,-1.0976,-1.0992,-1.0991,-1.1087,-1.0995,-1.0995,-1.0994,-1.0994,0,-1.0848,-1.088,-1.0867,-1.0889,-1.0924,-1.091,-1.0945,-1.0945,-1.0951,-1.0972,-1.0952,-1.0972,-1.0958,-1.0977,-1.097,-1.1004,-1.1007,-1.1007,-1.1005,-1.101,-1.101,-1.1018,-1.1015,-1.0997,-1.0996,-1.0996,-1.0995,0,-1.0923,-1.0916,-1.0952,-1.0954,-1.0955,-1.0981,-1.0983,-1.1003,-1.0999,-1.1026,-1.1031,-1.1025,-1.1047,-1.1038,-1.1061,-1.1056,-1.11,-1.1091,-1.1098,-1.1097,-1.113,-1.1128,-1.1235,-1.125,-1.1146,-1.1147,-1.1148,0,-1.0971,-1.0995,-1.1,-1.1013,-1.1017,-1.1038,-1.1049,-1.1036,-1.1049,-1.1059,-1.1078,-1.1098,-1.1113,-1.1148,-1.1146,-1.1164,-1.1157,-1.1193,-1.1159,-1.1164,-1.116,-1.1159,-1.1163,-1.1201,-1.1202,-1.1203,-1.1203,0,-1.1057,-1.1052,-1.107,-1.1086,-1.11,-1.1112,-1.1123,-1.1134,-1.1122,-1.1137,-1.1159,-1.1171,-1.1194,-1.1214,-1.1229,-1.1232,-1.1217,-1.1214,-1.1223,-1.1229,-1.1233,-1.1234,-1.1119,-1.1212,-1.1211,-1.1211,-1.121,-1.121,-1.1122,-1.1143,-1.1149,-1.117,-1.1176,-1.1186,-1.1205,-1.1204,-1.1221,-1.124,-1.123,-1.1256,-1.1263,-1.1282,-1.1288,-1.1308,-1.1294,-1.1306,-1.1309,-1.1313,-1.1318,-1.1228,-1.131,-1.131,-1.1309,-1.1309,-1.1309,0,-1.1209,-1.1212,-1.123,-1.1246,-1.1262,-1.1244,-1.1255,-1.127,-1.1292,-1.13,-1.1316,-1.1341,-1.136,-1.136,-1.1378,-1.1394,-1.1387,-1.1399,-1.1399,-1.1401,-1.1329,-1.1321,-1.1405,-1.1405,-1.1405,-1.1405,-1.1405,-1.1404,-1.1256,-1.1291,-1.1287,-1.1325,-1.1328,-1.1353,-1.1361,-1.137,-1.1377,-1.1406,-1.1422,-1.1421,-1.1426,-1.1444,-1.1461,-1.146,-1.1469,-1.1484,-1.1481,-1.1415,-1.1405,-1.1396,-1.1389,-1.1486,-1.1486,-1.1551,-1.1552,-1.1552]},{"header":{"parameterUnit":"m.s-1","parameterCategory":1,"la1":30.2991,"la2":30.254,"lo1":-89.0895,"lo2":-89.0444,"dy":0.0017,"dx":0.0017,"nx":28,"ny":28,"refTime":"2023-10-17T09:00:00:Z","depth":0,"parameterNumber":3,"parameterNumberName":"V-component_of_WINDS"},"data":[0,0,0,0,0,0,0,0,0,0,0,0,0,0,0,0,0,0,0,0,0,0,0,0,0,0,0,0,0,0,0,0,0,0,0,0,0,0,0,0,0,0,0,0,0,0,0,0,0,0,0,0,0,0,0,0,0,0,-3.2813,-3.2814,0,-3.286,-3.2861,-3.2861,-3.2819,-3.2817,-3.2815,-3.2814,-3.2858,-3.2861,-3.2864,0,0,0,0,0,0,0,0,0,0,0,0,0,-3.2684,-3.2686,-3.2813,-3.2814,-3.2814,-3.286,-3.2861,-3.2861,-3.2819,-3.2817,-3.2815,-3.2813,-3.2857,-3.2861,-3.2864,0,0,0,0,0,0,0,0,0,0,0,0,0,-3.2736,-3.2687,-3.2813,-3.2799,-3.2798,-3.286,-3.2861,-3.2862,-3.2819,-3.2817,-3.2814,-3.2812,-3.2856,-3.286,-3.2865,-3.2942,0,0,-3.2877,-3.2879,0,0,0,0,0,0,0,0,-3.2733,-3.2741,-3.28,-3.28,-3.2799,-3.2831,-3.2831,-3.2888,-3.282,-3.2811,-3.2813,-3.281,-3.2851,-3.2856,-3.287,-3.2944,-3.2946,-3.2878,-3.288,-3.2882,-3.2883,0,0,0,0,0,0,0,-3.273,-3.2739,-3.2831,-3.2801,-3.28,-3.2789,-3.2794,-3.2842,-3.2845,-3.2812,-3.2809,-3.2815,-3.285,-3.2866,-3.2871,-3.2947,-3.2878,-3.2881,-3.2884,-3.2886,-3.3088,-3.3091,0,0,0,0,0,0,-3.2728,-3.2736,-3.283,-3.2833,-3.2759,-3.2793,-3.2799,-3.2823,-3.2844,-3.2845,-3.2817,-3.2813,-3.286,-3.2866,-3.2872,-3.2966,-3.2882,-3.2886,-3.2888,-3.3086,-3.3089,-3.3092,0,0,0,0,0,0,-3.2725,-3.2737,-3.2828,-3.2784,-3.2794,-3.2798,-3.2826,-3.2825,-3.2841,-3.2849,-3.2848,-3.2833,-3.2858,-3.2866,-3.2926,-3.2967,-3.2888,-3.2892,-3.3082,-3.3087,-3.3091,-3.3153,0,0,0,0,0,0,-3.2722,-3.2736,-3.2766,-3.2785,-3.2797,-3.2882,-3.2829,-3.2828,-3.2849,-3.2844,-3.2863,-3.2864,-3.2857,-3.292,-3.293,-3.2971,-3.2895,-3.3079,-3.3084,-3.3089,-3.3147,-3.3159,-3.3168,0,0,0,0,0,-3.2717,-3.278,-3.2768,-3.2779,-3.2835,-3.2884,-3.2891,-3.2883,-3.2852,-3.2883,-3.2887,-3.2863,-3.296,-3.2926,-3.2937,-3.298,-3.3076,-3.3083,-3.3089,-3.3142,-3.3156,-3.3168,0,0,0,0,0,0,-3.2765,-3.2783,-3.2769,-3.284,-3.2861,-3.2877,-3.2915,-3.2898,-3.2927,-3.2921,-3.2908,-3.2912,-3.2976,-3.2983,-3.2945,-3.3057,-3.3013,-3.3022,-3.305,-3.3063,-3.3074,-3.3071,-3.2898,0,0,0,0,0,-3.2784,-3.2824,-3.2836,-3.2898,-3.291,-3.2911,-3.2932,-3.2924,-3.2944,-3.2953,-3.2962,-3.2982,-3.3017,-3.304,-3.3073,-3.3148,-3.3152,-3.3183,-3.3193,-3.3202,-3.321,-3.3252,-3.3266,-3.3113,-3.3113,-3.3113,0,0,-3.2823,-3.2838,-3.2863,-3.2908,-3.2924,-3.2965,-3.2918,-3.2963,-3.2993,-3.2959,-3.3017,-3.3024,-3.3046,-3.3114,-3.3144,-3.3122,-3.3253,-3.321,-3.3217,-3.3221,-3.326,-3.3274,-3.3287,-3.3118,-3.3117,-3.3116,0,0,-3.2916,-3.2931,-3.2985,-3.3002,-3.3026,-3.3027,-3.304,-3.3059,-3.3063,-3.3121,-3.3096,-3.3131,-3.3192,-3.3209,-3.3225,-3.3326,-3.3306,-3.3337,-3.3393,-3.3434,-3.3446,-3.3457,-3.3494,-3.3507,-3.3345,-3.3345,-3.3345,0,-3.2962,-3.3024,-3.3014,-3.3062,-3.3083,-3.3055,-3.311,-3.3126,-3.3159,-3.3174,-3.3149,-3.3226,-3.3238,-3.331,-3.3335,-3.3349,-3.3364,-3.3335,-3.3445,-3.3456,-3.3465,-3.3501,-3.3515,-3.3349,-3.3348,-3.3348,-3.3348,0,-3.3079,-3.3122,-3.3163,-3.3198,-3.3223,-3.3273,-3.3271,-3.3298,-3.3287,-3.329,-3.335,-3.3364,-3.34,-3.3416,-3.3406,-3.3487,-3.3473,-3.3447,-3.3403,-3.3484,-3.3517,-3.3531,-3.3354,-3.3353,-3.3352,-3.3351,0,0,-3.3203,-3.3234,-3.3249,-3.3265,-3.3291,-3.3324,-3.3373,-3.341,-3.3433,-3.3457,-3.3498,-3.3551,-3.3527,-3.3546,-3.3537,-3.3573,-3.3654,-3.3542,-3.3543,-3.3564,-3.3746,-3.3767,-3.3783,-3.364,-3.3642,-3.3644,-3.3745,0,-3.3298,-3.3386,-3.338,-3.3462,-3.3502,-3.3477,-3.352,-3.3541,-3.3545,-3.3579,-3.3582,-3.3621,-3.3586,-3.3598,-3.3631,-3.3637,-3.369,-3.3629,-3.3678,-3.368,-3.3675,-3.38,-3.3821,-3.3915,-3.3757,-3.376,-3.3761,0,-3.3421,-3.3452,-3.3539,-3.356,-3.3577,-3.3616,-3.3649,-3.3682,-3.3705,-3.3705,-3.3727,-3.3713,-3.3762,-3.3717,-3.3785,-3.3744,-3.3763,-3.3769,-3.3772,-3.3777,-3.3727,-3.3809,-3.3945,-3.396,-3.3781,-3.378,-3.3778,0,-3.3505,-3.3567,-3.3628,-3.3643,-3.3668,-3.3697,-3.3708,-3.3728,-3.3751,-3.378,-3.3795,-3.3828,-3.3847,-3.3873,-3.3868,-3.3835,-3.3939,-3.3892,-3.394,-3.3941,-3.3964,-3.3963,-3.4106,-3.3975,-3.3975,-3.3974,-3.3974,0,-3.3612,-3.3667,-3.3667,-3.3704,-3.3765,-3.3756,-3.3816,-3.3824,-3.3843,-3.3881,-3.386,-3.3896,-3.3887,-3.3923,-3.3919,-3.3977,-3.3985,-3.3986,-3.3985,-3.3989,-3.3989,-3.4003,-3.3997,-3.3978,-3.3977,-3.3976,-3.3976,0,-3.3716,-3.3718,-3.3783,-3.3803,-3.3809,-3.3853,-3.387,-3.3905,-3.3907,-3.3956,-3.3967,-3.3971,-3.4012,-3.401,-3.4055,-3.4053,-3.4125,-3.4115,-3.4118,-3.4117,-3.4166,-3.4162,-3.4324,-3.4345,-3.4199,-3.42,-3.4201,0,-3.3786,-3.3828,-3.3853,-3.3878,-3.3892,-3.3932,-3.3956,-3.3949,-3.3975,-3.4004,-3.4036,-3.4076,-3.4107,-3.4174,-3.418,-3.4215,-3.4207,-3.4261,-3.4212,-3.4216,-3.421,-3.4208,-3.4213,-3.4271,-3.4273,-3.4274,-3.4275,0,-3.3909,-3.3908,-3.3944,-3.3981,-3.4011,-3.4039,-3.4065,-3.4086,-3.4082,-3.4112,-3.4155,-3.4179,-3.4227,-3.4267,-3.4301,-3.4311,-3.4294,-3.4291,-3.4304,-3.431,-3.431,-3.4312,-3.4146,-3.4287,-3.4286,-3.4285,-3.4285,-3.4284,-3.3999,-3.4035,-3.406,-3.4101,-3.412,-3.4145,-3.418,-3.4188,-3.4224,-3.4263,-3.4257,-3.4305,-3.4327,-3.4371,-3.4385,-3.4422,-3.4403,-3.4422,-3.4427,-3.4432,-3.4438,-3.4304,-3.4428,-3.4428,-3.4427,-3.4427,-3.4427,0,-3.4122,-3.4137,-3.4175,-3.4213,-3.4245,-3.4226,-3.4254,-3.4282,-3.4326,-3.4348,-3.438,-3.443,-3.4469,-3.4479,-3.4516,-3.4544,-3.4537,-3.4554,-3.4552,-3.4556,-3.4453,-3.4438,-3.4559,-3.4559,-3.4559,-3.4559,-3.4559,-3.4559,-3.419,-3.4252,-3.4255,-3.4326,-3.4339,-3.4388,-3.4406,-3.4429,-3.4447,-3.4504,-3.4537,-3.4544,-3.4561,-3.46,-3.4635,-3.4636,-3.4652,-3.4673,-3.4672,-3.4576,-3.4563,-3.455,-3.4536,-3.4676,-3.4676,-3.4771,-3.4772,-3.4773]}]]